[[{"header":{"parameterUnit":"m.s-1","parameterCategory":1,"la1":30.2991,"la2":30.254,"lo1":-89.0895,"lo2":-89.0444,"dy":0.0017,"dx":0.0017,"nx":28,"ny":28,"refTime":"2024-10-09T03:00:00:Z","depth":0,"parameterNumber":2,"parameterNumberName":"U-component_of_WINDS"},"data":[0,0,0,0,0,0,0,0,0,0,0,0,0,0,0,0,0,0,0,0,0,0,0,0,0,0,0,0,0,0,0,0,0,0,0,0,0,0,0,0,0,0,0,0,0,0,0,0,0,0,0,0,0,0,0,0,0,0,-1.0014,-1.0015,0,-1.0046,-1.0046,-1.0047,-1.0018,-1.0017,-1.0015,-1.0014,-1.0049,-1.0051,-1.0053,0,0,0,0,0,0,0,0,0,0,0,0,0,-0.993,-0.9931,-1.0014,-1.0015,-1.0015,-1.0046,-1.0046,-1.0047,-1.0018,-1.0016,-1.0015,-1.0014,-1.0049,-1.0051,-1.0053,0,0,0,0,0,0,0,0,0,0,0,0,0,-0.9965,-0.9932,-1.0014,-1.0004,-1.0004,-1.0046,-1.0047,-1.0047,-1.0018,-1.0016,-1.0015,-1.0013,-1.0048,-1.0051,-1.0054,-1.0108,0,0,-1.0063,-1.0064,0,0,0,0,0,0,0,0,-0.9963,-0.9968,-1.0005,-1.0005,-1.0004,-1.0026,-1.0029,-1.0068,-1.0019,-1.0013,-1.0014,-1.0012,-1.0043,-1.0046,-1.0056,-1.011,-1.0111,-1.0063,-1.0065,-1.0066,-1.0067,0,0,0,0,0,0,0,-0.996,-0.9966,-1.0027,-1.0006,-1.0005,-0.9999,-1.0002,-1.0037,-1.0038,-1.0013,-1.0011,-1.0015,-1.0043,-1.0054,-1.0057,-1.0112,-1.0063,-1.0066,-1.0068,-1.0069,-1.0212,-1.0214,0,0,0,0,0,0,-0.9959,-0.9964,-1.0026,-1.0028,-0.9979,-1.0002,-1.0005,-1.0021,-1.0037,-1.0038,-1.0017,-1.0014,-1.0049,-1.0053,-1.0058,-1.0123,-1.0066,-1.0069,-1.0071,-1.021,-1.0212,-1.0214,0,0,0,0,0,0,-0.9957,-0.9964,-1.0025,-0.9996,-1.0003,-1.0005,-1.0023,-1.0023,-1.0033,-1.004,-1.004,-1.0028,-1.0048,-1.0054,-1.0096,-1.0124,-1.0071,-1.0073,-1.0208,-1.0211,-1.0213,-1.0254,0,0,0,0,0,0,-0.9955,-0.9964,-0.9984,-0.9996,-1.0004,-1.0061,-1.0025,-1.0024,-1.0039,-1.0035,-1.005,-1.0051,-1.0047,-1.0091,-1.0099,-1.0127,-1.0076,-1.0205,-1.0209,-1.0212,-1.025,-1.0258,-1.0265,0,0,0,0,0,-0.9952,-0.9995,-0.9986,-0.9993,-1.003,-1.0063,-1.0068,-1.0062,-1.0041,-1.0062,-1.0066,-1.005,-1.012,-1.0096,-1.0104,-1.0134,-1.0203,-1.0208,-1.0212,-1.0247,-1.0257,-1.0265,0,0,0,0,0,0,-0.9987,-0.9996,-0.9986,-1.0034,-1.0048,-1.0058,-1.0084,-1.0072,-1.0093,-1.0089,-1.0081,-1.0084,-1.0129,-1.0135,-1.0109,-1.0188,-1.0158,-1.0164,-1.0182,-1.0191,-1.0198,-1.0196,-1.0078,0,0,0,0,0,-1.0001,-1.0026,-1.0033,-1.0075,-1.0082,-1.0082,-1.0096,-1.009,-1.0105,-1.0111,-1.0118,-1.0133,-1.0158,-1.0175,-1.0198,-1.0251,-1.0254,-1.0275,-1.0283,-1.0288,-1.0294,-1.0323,-1.0333,-1.0229,-1.0229,-1.0229,0,0,-1.0029,-1.0037,-1.0054,-1.0082,-1.0092,-1.012,-1.0087,-1.0118,-1.0138,-1.0115,-1.0156,-1.0161,-1.0177,-1.0225,-1.0247,-1.0232,-1.0324,-1.0294,-1.0299,-1.0302,-1.0329,-1.0339,-1.0348,-1.0232,-1.0231,-1.0231,0,0,-1.0094,-1.0103,-1.0139,-1.0149,-1.0164,-1.0164,-1.0172,-1.0184,-1.0187,-1.0227,-1.021,-1.0235,-1.0278,-1.029,-1.0302,-1.0372,-1.0359,-1.0379,-1.0418,-1.0446,-1.0454,-1.0462,-1.0487,-1.0496,-1.0385,-1.0385,-1.0385,0,-1.0128,-1.0168,-1.0159,-1.0191,-1.0204,-1.0183,-1.022,-1.0231,-1.0253,-1.0263,-1.0246,-1.03,-1.031,-1.036,-1.0377,-1.0387,-1.0397,-1.0378,-1.0454,-1.0461,-1.0468,-1.0492,-1.0502,-1.0388,-1.0387,-1.0387,-1.0387,0,-1.0208,-1.0236,-1.0264,-1.0285,-1.0301,-1.0336,-1.0332,-1.035,-1.0342,-1.0344,-1.0385,-1.0395,-1.0421,-1.0432,-1.0425,-1.0482,-1.0472,-1.0455,-1.0425,-1.048,-1.0503,-1.0512,-1.0391,-1.039,-1.039,-1.0389,0,0,-1.0298,-1.0314,-1.0324,-1.0334,-1.0349,-1.037,-1.0403,-1.0427,-1.0443,-1.0459,-1.0487,-1.0524,-1.0507,-1.0521,-1.0515,-1.054,-1.0595,-1.0519,-1.052,-1.0534,-1.0659,-1.0673,-1.0684,-1.0586,-1.0588,-1.0589,-1.0658,0,-1.0365,-1.0422,-1.0415,-1.047,-1.0496,-1.0477,-1.0506,-1.0518,-1.052,-1.0543,-1.0545,-1.0572,-1.0548,-1.0556,-1.0579,-1.0584,-1.0621,-1.0578,-1.0613,-1.0615,-1.0611,-1.0696,-1.0711,-1.0775,-1.0667,-1.0668,-1.0669,0,-1.0451,-1.0469,-1.0527,-1.0537,-1.0548,-1.0574,-1.0596,-1.0617,-1.0631,-1.0631,-1.0646,-1.0636,-1.0669,-1.0638,-1.0685,-1.0657,-1.0671,-1.0675,-1.0677,-1.0681,-1.0646,-1.0703,-1.0796,-1.0806,-1.0683,-1.0682,-1.0681,0,-1.0512,-1.0551,-1.059,-1.0599,-1.0612,-1.0631,-1.0638,-1.065,-1.0664,-1.0683,-1.0693,-1.0716,-1.0728,-1.0746,-1.0743,-1.072,-1.0791,-1.076,-1.0793,-1.0793,-1.081,-1.0809,-1.0907,-1.0817,-1.0817,-1.0817,-1.0816,0,-1.0588,-1.0624,-1.0618,-1.0642,-1.0682,-1.0674,-1.0714,-1.0718,-1.0729,-1.0754,-1.0738,-1.0763,-1.0756,-1.078,-1.0777,-1.0817,-1.0823,-1.0825,-1.0824,-1.0827,-1.0827,-1.0836,-1.0832,-1.0819,-1.0819,-1.0818,-1.0818,0,-1.0663,-1.0661,-1.0702,-1.0711,-1.0714,-1.0744,-1.0751,-1.0775,-1.0775,-1.0807,-1.0814,-1.0815,-1.0843,-1.084,-1.0872,-1.087,-1.092,-1.0913,-1.0915,-1.0914,-1.0948,-1.0945,-1.1056,-1.1071,-1.097,-1.0971,-1.0972,0,-1.0713,-1.074,-1.0751,-1.0767,-1.0775,-1.08,-1.0814,-1.0807,-1.0823,-1.0841,-1.0862,-1.0888,-1.0908,-1.0954,-1.0958,-1.0982,-1.0976,-1.1013,-1.098,-1.0982,-1.0978,-1.0977,-1.098,-1.102,-1.1021,-1.1022,-1.1023,0,-1.0801,-1.0798,-1.0819,-1.0841,-1.0858,-1.0875,-1.089,-1.0904,-1.0897,-1.0917,-1.0944,-1.096,-1.0991,-1.1018,-1.104,-1.1048,-1.1035,-1.1033,-1.1043,-1.1047,-1.1047,-1.1048,-1.0934,-1.1031,-1.103,-1.103,-1.1029,-1.1029,-1.0865,-1.0888,-1.09,-1.0925,-1.0935,-1.0949,-1.0972,-1.0974,-1.0997,-1.1021,-1.1015,-1.1047,-1.106,-1.1089,-1.1099,-1.1123,-1.111,-1.1123,-1.1127,-1.113,-1.1135,-1.1042,-1.1127,-1.1127,-1.1127,-1.1127,-1.1127,0,-1.0953,-1.0959,-1.0982,-1.1003,-1.1023,-1.1007,-1.1023,-1.1041,-1.1068,-1.1081,-1.1101,-1.1133,-1.1158,-1.1164,-1.1188,-1.1207,-1.1202,-1.1214,-1.1213,-1.1215,-1.1145,-1.1135,-1.1218,-1.1218,-1.1218,-1.1218,-1.1218,-1.1218,-1.1001,-1.104,-1.1038,-1.1082,-1.1089,-1.1119,-1.1129,-1.1142,-1.1152,-1.1189,-1.1209,-1.1212,-1.1222,-1.1247,-1.127,-1.1271,-1.1281,-1.1296,-1.1295,-1.1229,-1.122,-1.1211,-1.1202,-1.1298,-1.1298,-1.1363,-1.1364,-1.1364]},{"header":{"parameterUnit":"m.s-1","parameterCategory":1,"la1":30.2991,"la2":30.254,"lo1":-89.0895,"lo2":-89.0444,"dy":0.0017,"dx":0.0017,"nx":28,"ny":28,"refTime":"2024-10-09T03:00:00:Z","depth":0,"parameterNumber":3,"parameterNumberName":"V-component_of_WINDS"},"data":[0,0,0,0,0,0,0,0,0,0,0,0,0,0,0,0,0,0,0,0,0,0,0,0,0,0,0,0,0,0,0,0,0,0,0,0,0,0,0,0,0,0,0,0,0,0,0,0,0,0,0,0,0,0,0,0,0,0,-4.1047,-4.1048,0,-4.107,-4.107,-4.1071,-4.103,-4.1029,-4.1027,-4.1026,-4.1047,-4.1049,-4.105,0,0,0,0,0,0,0,0,0,0,0,0,0,-4.0967,-4.0969,-4.1047,-4.1048,-4.1048,-4.107,-4.107,-4.1071,-4.103,-4.1029,-4.1027,-4.1026,-4.1046,-4.1048,-4.105,0,0,0,0,0,0,0,0,0,0,0,0,0,-4.0997,-4.097,-4.1047,-4.1031,-4.1029,-4.107,-4.107,-4.1071,-4.1031,-4.1029,-4.1027,-4.1025,-4.1045,-4.1048,-4.1051,-4.1108,0,0,-4.1059,-4.106,0,0,0,0,0,0,0,0,-4.0996,-4.1,-4.1033,-4.1032,-4.103,-4.1045,-4.105,-4.1083,-4.1031,-4.103,-4.1026,-4.1024,-4.1048,-4.105,-4.1059,-4.1109,-4.111,-4.1059,-4.1061,-4.1062,-4.1063,0,0,0,0,0,0,0,-4.0994,-4.0999,-4.1056,-4.1033,-4.1032,-4.1021,-4.1023,-4.1056,-4.105,-4.103,-4.1027,-4.1031,-4.1047,-4.1056,-4.1059,-4.111,-4.1059,-4.1062,-4.1063,-4.1064,-4.121,-4.1212,0,0,0,0,0,0,-4.0994,-4.0997,-4.1055,-4.1057,-4.1008,-4.1024,-4.1027,-4.1042,-4.1049,-4.1049,-4.1032,-4.1029,-4.1053,-4.1056,-4.1059,-4.1128,-4.1062,-4.1065,-4.1066,-4.1208,-4.121,-4.1213,0,0,0,0,0,0,-4.0992,-4.0999,-4.1055,-4.1026,-4.1033,-4.1028,-4.1046,-4.1044,-4.1053,-4.1051,-4.105,-4.1043,-4.1051,-4.1056,-4.1097,-4.1128,-4.1066,-4.1068,-4.1205,-4.1208,-4.1211,-4.1264,0,0,0,0,0,0,-4.099,-4.0999,-4.1021,-4.1027,-4.1034,-4.1092,-4.1048,-4.1046,-4.1059,-4.1054,-4.1061,-4.106,-4.105,-4.1093,-4.1099,-4.113,-4.107,-4.1202,-4.1206,-4.121,-4.126,-4.1269,-4.1277,0,0,0,0,0,-4.0987,-4.1034,-4.1022,-4.1029,-4.1062,-4.1094,-4.1098,-4.1086,-4.1061,-4.1083,-4.1082,-4.106,-4.1124,-4.1097,-4.1104,-4.1137,-4.12,-4.1205,-4.121,-4.1256,-4.1267,-4.1277,0,0,0,0,0,0,-4.103,-4.1034,-4.1021,-4.1072,-4.1083,-4.1087,-4.1114,-4.1098,-4.1115,-4.111,-4.1094,-4.1096,-4.114,-4.1142,-4.1113,-4.1193,-4.1158,-4.1164,-4.119,-4.1201,-4.1209,-4.1207,-4.1073,0,0,0,0,0,-4.1045,-4.1072,-4.1074,-4.1118,-4.1124,-4.1119,-4.1132,-4.1122,-4.1132,-4.1137,-4.1138,-4.1149,-4.1171,-4.1186,-4.1206,-4.126,-4.1261,-4.1286,-4.1294,-4.1302,-4.1307,-4.1337,-4.1348,-4.1229,-4.1229,-4.1229,0,0,-4.1076,-4.1082,-4.11,-4.1126,-4.1134,-4.1161,-4.1122,-4.1153,-4.1173,-4.1141,-4.118,-4.1182,-4.1193,-4.1241,-4.1262,-4.1244,-4.1341,-4.1308,-4.1314,-4.1316,-4.1343,-4.1355,-4.1365,-4.1233,-4.1232,-4.1232,0,0,-4.1148,-4.1155,-4.1193,-4.1202,-4.1215,-4.1211,-4.122,-4.1227,-4.1228,-4.1267,-4.1245,-4.1268,-4.1307,-4.1316,-4.1325,-4.1403,-4.1384,-4.141,-4.1455,-4.1484,-4.1493,-4.1501,-4.153,-4.154,-4.1416,-4.1416,-4.1416,0,-4.1185,-4.1226,-4.1214,-4.1247,-4.126,-4.1234,-4.1272,-4.1281,-4.1299,-4.1308,-4.1289,-4.1338,-4.1343,-4.1393,-4.1413,-4.1421,-4.1431,-4.1409,-4.1493,-4.1501,-4.1509,-4.1535,-4.1546,-4.1419,-4.1419,-4.1418,-4.1418,0,-4.1272,-4.1301,-4.133,-4.135,-4.1366,-4.1401,-4.1394,-4.1412,-4.1401,-4.14,-4.1441,-4.1447,-4.1468,-4.148,-4.1469,-4.1529,-4.1518,-4.1496,-4.146,-4.1523,-4.1548,-4.1558,-4.1424,-4.1422,-4.1422,-4.1421,0,0,-4.1368,-4.1384,-4.1394,-4.1404,-4.1417,-4.1439,-4.1473,-4.1496,-4.1512,-4.1526,-4.1554,-4.1589,-4.1569,-4.158,-4.157,-4.1596,-4.1658,-4.1571,-4.1571,-4.1587,-4.1726,-4.1742,-4.1754,-4.1646,-4.1648,-4.1649,-4.1725,0,-4.144,-4.15,-4.1492,-4.155,-4.1577,-4.1554,-4.1584,-4.1595,-4.1595,-4.1618,-4.1617,-4.1642,-4.1614,-4.1621,-4.1645,-4.1645,-4.1686,-4.164,-4.1672,-4.1673,-4.167,-4.1767,-4.1784,-4.1855,-4.1734,-4.1736,-4.1737,0,-4.153,-4.155,-4.1611,-4.1622,-4.1633,-4.1661,-4.1681,-4.1703,-4.1716,-4.1714,-4.1728,-4.1714,-4.1748,-4.1713,-4.176,-4.1729,-4.1742,-4.1744,-4.1747,-4.1749,-4.1709,-4.1772,-4.1877,-4.1888,-4.1752,-4.1751,-4.175,0,-4.1596,-4.1637,-4.1679,-4.1688,-4.1702,-4.1722,-4.1728,-4.1739,-4.1754,-4.1772,-4.1781,-4.1803,-4.1815,-4.1832,-4.1824,-4.1798,-4.1873,-4.1836,-4.1872,-4.1873,-4.1888,-4.1888,-4.1998,-4.1897,-4.1897,-4.1897,-4.1897,0,-4.1676,-4.1714,-4.1709,-4.1735,-4.1778,-4.1768,-4.181,-4.1814,-4.1824,-4.185,-4.1831,-4.1856,-4.1845,-4.1869,-4.1863,-4.1904,-4.1909,-4.1908,-4.1906,-4.191,-4.191,-4.1918,-4.1912,-4.19,-4.1899,-4.1899,-4.1898,0,-4.1755,-4.1753,-4.1798,-4.1808,-4.1812,-4.1843,-4.1851,-4.1875,-4.1875,-4.1908,-4.1916,-4.1914,-4.1942,-4.1936,-4.1966,-4.1962,-4.2013,-4.2005,-4.201,-4.2008,-4.2044,-4.2041,-4.2163,-4.2178,-4.2068,-4.2069,-4.207,0,-4.1806,-4.1836,-4.185,-4.1867,-4.1876,-4.1903,-4.1918,-4.191,-4.1927,-4.1945,-4.1967,-4.1994,-4.2014,-4.2059,-4.2061,-4.2084,-4.2076,-4.2117,-4.2079,-4.2083,-4.2077,-4.2075,-4.2078,-4.2124,-4.2126,-4.2127,-4.2128,0,-4.1898,-4.1896,-4.192,-4.1945,-4.1964,-4.1983,-4.1999,-4.2014,-4.2007,-4.2027,-4.2056,-4.2072,-4.2104,-4.213,-4.2152,-4.2158,-4.2142,-4.214,-4.215,-4.2153,-4.2155,-4.2155,-4.203,-4.2137,-4.2136,-4.2135,-4.2135,-4.2134,-4.1964,-4.199,-4.2005,-4.2033,-4.2045,-4.2061,-4.2085,-4.2089,-4.2113,-4.2139,-4.2133,-4.2166,-4.2179,-4.2207,-4.2216,-4.2241,-4.2225,-4.2239,-4.2243,-4.2246,-4.2251,-4.2151,-4.2245,-4.2245,-4.2244,-4.2244,-4.2244,0,-4.2055,-4.2064,-4.209,-4.2115,-4.2137,-4.2122,-4.214,-4.2159,-4.2189,-4.2203,-4.2224,-4.2258,-4.2284,-4.2289,-4.2313,-4.2333,-4.2326,-4.234,-4.2338,-4.234,-4.2263,-4.2253,-4.2345,-4.2345,-4.2345,-4.2345,-4.2345,-4.2345,-4.2105,-4.2148,-4.2148,-4.2198,-4.2206,-4.2239,-4.2251,-4.2266,-4.2278,-4.2317,-4.2339,-4.2343,-4.2353,-4.2379,-4.2402,-4.2403,-4.2413,-4.2429,-4.2427,-4.2355,-4.2345,-4.2335,-4.2325,-4.2432,-4.2432,-4.2502,-4.2502,-4.2503]}]]